User: anonymous   Login
Location: Newark
(33.6439°N, 114.9881°W)
Time: 09:40:06
(UTC+00:00)
Language:

Transit 4A - Orbit

View from above orbital plane
View from above orbital plane
View from above satellite
View from above satellite

Ground track
Ground track

The orbit data is extracted from the following two-line orbital elements,

1   116U 61015A   19204.70115543 -.00000037 +00000-0 +30650-4 0  9992
2   116 066.8106 294.3166 0082065 242.3639 116.9092 13.91755975945938
Epoch (UTC): 23 July 2019 16:49:39
Eccentricity: 0.0082065
inclination: 66.8106°
perigee height: 862 km
apogee height: 982 km
right ascension of ascending node: 294.3166°
argument of perigee: 242.3639°
revolutions per day: 13.91755975
mean anomaly at epoch: 116.9092°
orbit number at epoch: 94593

The dashed part of the orbit path shows where the satellite is in the earth's shadow,  

DLR